Regional Weather Roundup
Issued by NWS

Home | Current Version | Previous Version | Graphics & Text | Print | Product List | Glossary On
Versions: 1 2 3 4 5 6 7 8 9 10 11 12 13 14 15 16 17 18 19 20 21 22 23 24 25 26 27 28 29 30 31 32 33 34 35 36 37 38 39 40 41 42 43 44 45 46 47 48 49 50
000
ASUS43 KOAX 152010
RWRNE

WEATHER ROUNDUP FOR NEBRASKA
NATIONAL WEATHER SERVICE OMAHA NE
300 PM CDT TUE AUG 15 2017

NOTES: SATELLITE DATA IS BEING USED TO AUGMENT CLOUD COVER ABOVE
       12000 FEET.
       "FAIR" INDICATES FEW OR NO CLOUDS BELOW 12,000 FEET WITH NO
       SIGNIFICANT WEATHER AND/OR OBSTRUCTIONS TO VISIBILITY.


NEZ001>004-019>022-054>056-152100-
NEBRASKA PANHANDLE

CITY           SKY/WX    TMP DP  RH WIND       PRES   REMARKS
SCOTTSBLUFF    MOSUNNY   81  56  42 VRB3      29.86F
ALLIANCE       SUNNY     78  58  49 CALM      29.86F
CHADRON        CLOUDY    83  52  34 CALM      29.83F
GORDON         FAIR      81  61  49 S8        29.84F
KIMBALL        CLOUDY    78  58  50 E7        29.92F
SIDNEY         SUNNY     81  61  50 VRB6      29.89F
$$

NEZ057>060-069>072-079>082-152100-
SOUTHWEST NEBRASKA

CITY           SKY/WX    TMP DP  RH WIND       PRES   REMARKS
NORTH PLATTE   CLOUDY    78  71  79 SE5       29.83R
IMPERIAL       MOSUNNY   88  62  41 SE18G24   29.81F
LEXINGTON      MOSUNNY   85  71  60 S10       29.81F HX  90
MCCOOK         MOSUNNY   91  64  40 S14       29.79F HX  92
OGALLALA       SUNNY     82  67  59 CALM      29.84S
$$

NEZ005>010-023>029-035>040-094-152100-
NORTH CENTRAL NEBRASKA

CITY           SKY/WX    TMP DP  RH WIND       PRES   REMARKS
VALENTINE      CLOUDY    78  64  61 SE10      29.85S
AINSWORTH      CLOUDY    76  68  77 S3        29.85F
BROKEN BOW     PTSUNNY   76  68  76 SE5       29.83F
O`NEILL        LGT RAIN  65  65 100 S3        29.86S
ORD            CLOUDY    79  68  69 SE8       29.82F
THEDFORD       CLOUDY    79  66  64 S7        29.85F
$$

NEZ041-046>049-061>064-073>077-083>087-152100-
SOUTH CENTRAL NEBRASKA

CITY           SKY/WX    TMP DP  RH WIND       PRES   REMARKS
GRAND ISLAND   MOSUNNY   83  75  77 SE12      29.83F HX  90
AURORA         PTSUNNY   87  73  63 S15G21    29.82F HX  94
HASTINGS       SUNNY     90  65  43 S15       29.83S HX  92
HEBRON         MOSUNNY   91  68  47 S7G21     29.81F HX  94
HOLDREGE       SUNNY     88  65  46 S10       29.81F
KEARNEY        PTSUNNY   88  72  58 S14       29.81F HX  94
YORK           PTSUNNY   84  75  74 E7        29.83S HX  92
$$

NEZ011>018-030>034-042>045-152100-
NORTHEAST NEBRASKA

CITY           SKY/WX    TMP DP  RH WIND       PRES   REMARKS
NORFOLK        CLOUDY    78  69  73 S12       29.83F
ALBION         CLOUDY    82  73  75 S13       29.84F
BLAIR          SUNNY     83  73  70 SE9       29.84S
COLUMBUS       MOSUNNY   81  73  76 SE10      29.83F
FREMONT        SUNNY     83  71  66 S12       29.85S
TEKAMAH        MOSUNNY   83  69  62 S9        29.84S
WAYNE          CLOUDY    73  70  91 E12       29.85F
$$

NEZ050>053-065>068-078-088>093-152100-
SOUTHEAST NEBRASKA

CITY           SKY/WX    TMP DP  RH WIND       PRES   REMARKS
LINCOLN        SUNNY     85  74  69 E9        29.82F HX  92
OMAHA EPPLEY   MOSUNNY   86  70  58 SE17      29.83F HX  90
BEATRICE       MOSUNNY   92  68  44 S14       29.81F HX  96
FALLS CITY     MOSUNNY   87  70  56 SE12      29.83F HX  92
NEBRASKA CITY  MOSUNNY   85  76  72 SE12G17   29.83F HX  95
PLATTSMOUTH    SUNNY     83  72  69 SE13      29.84S
$$

NEZ044-045-051>053-067-152100-
OMAHA AREA

CITY           SKY/WX    TMP DP  RH WIND       PRES   REMARKS
OMAHA EPPLEY   MOSUNNY   86  70  58 SE17      29.83F HX  90
BLAIR          SUNNY     83  73  70 SE9       29.84S
FREMONT        SUNNY     83  71  66 S12       29.85S
MILLARD        SUNNY     85  73  65 S14       29.83S HX  92
OFFUTT AFB     SUNNY     86  71  59 SE15G24   29.82F HX  91
PLATTSMOUTH    SUNNY     83  72  69 SE13      29.84S
WAHOO          FAIR      84  73  67 SE8       29.84S HX  90
$$




USA.gov is the U.S. government's official web portal to all federal, state and local government web resources and services.